Shon Levy

Olheiro-Chefe - Hapoel Raanana
20 Ago 2028
Domingo
Processo

Personalidade

Adaptabilidade (3) Ambição (1) Controvérsia (6) Lealdade (3) Pressão (10) Profissionalismo (15) Espírito Esportivo (10) Temperamento (13)

Perfil

Estilo de Treinamento Democrático
Licença Nacional A
Determinação 3
Gestão de Pessoas 10
Motivação 5
Disciplina 3
Satisfação no Trabalho
100%
Fadiga
0%
Função Olheiro-Chefe
Salário 48.8K p/s
Contrato 14.03.2030

Desempenho

Comportamento Bom
Eficácia do Treinamento
39%
Desenvolvimento do Jogador
40%
Prevenção de Lesões
30%
Implementação Tática
20%

Eventos Recentes

Participou de uma reunião de recrutamento agora
Participou de uma reunião de recrutamento 7d atrás
Participou de uma reunião de recrutamento 7d atrás
Participou de uma reunião de recrutamento 7d atrás
Participou de uma reunião de recrutamento 14d atrás
Participou de uma reunião de recrutamento 14d atrás
Participou de uma reunião de recrutamento 14d atrás
Participou de uma reunião de recrutamento 21d atrás

Monitorando agora

90
Jogador Clube Status Habilidade Confiança Observado Última observação Último voto
Niv Antman Bnei Sakhnin Ativo 82 / 77 55% 1 07.01.2028 -
Esteban da Silva Racing Ativo 122 / 109 40% 1 31.12.2027 Mais informações
Samuel Kalu Botev Plovdiv Ativo 128 / 108 40% 1 31.12.2027 Mais informações
Sebastián Parera Ativo 89 / 101 55% 1 12.07.2027 -
Roey Magor Maccabi Tel Aviv Ativo 85 / 78 51% 1 21.06.2027 -
Will Swan Bradford City Ativo 93 / 118 40% 1 01.06.2027 -
Rui Costa Port Vale Ativo 102 / 95 40% 4 29.05.2027 -
Tyrese Shade Burton Albion Ativo 103 / 107 40% 1 29.05.2027 -
Andy Rinomhota Reading Ativo 103 / 127 40% 1 28.05.2027 -
Sheyi Ojo Crewe Alexandra Ativo 114 / 122 40% 1 28.05.2027 -
Ar'jany Martha Rotherham United Ativo 104 / 107 40% 2 27.05.2027 -
Ben Garrity Port Vale Ativo 99 / 96 40% 1 26.05.2027 -
Ryan Wintle Milton Keynes Dons Ativo 101 / 109 40% 1 26.05.2027 -
Malik Mothersille Stockport County Ativo 102 / 101 40% 1 23.05.2027 -
Callum Wright Plymouth Argyle Ativo 98 / 110 40% 1 23.05.2027 -
Harry Anderson Bristol Rovers Ativo 116 / 92 40% 2 18.05.2027 -
Jack Moylan Lincoln City Ativo 118 / 115 40% 1 18.05.2027 -
Alex Lowry Wycombe Wanderers Ativo 112 / 131 40% 1 13.05.2027 -
Declan Frith Peterborough United Ativo 113 / 96 40% 2 12.05.2027 Mais informações
Josh Flint Gillingham Ativo 97 / 114 40% 1 05.05.2027 -
Rúben Rodrigues Bolton Wanderers Ativo 108 / 126 40% 1 04.05.2027 Mais informações
Nathan Moriah-Welsh Mansfield Town Ativo 110 / 115 40% 1 01.05.2027 -
Xavier Amaechi Plymouth Argyle Ativo 100 / 117 40% 2 30.04.2027 -
Stephen Humphrys Bradford City Ativo 106 / 107 40% 3 29.04.2027 -
Tyreece Campbell Charlton Athletic Ativo 121 / 104 40% 2 27.04.2027 -
Paddy Lane Reading Ativo 111 / 104 40% 2 27.04.2027 -
Tony Springett Cheltenham Town Ativo 117 / 117 40% 1 25.04.2027 -
George Earthy Reading Ativo 112 / 116 40% 2 22.04.2027 -
Harvey Knibbs Charlton Athletic Ativo 119 / 111 40% 1 22.04.2027 -
Jay Matete Milton Keynes Dons Ativo 101 / 100 40% 2 21.04.2027 -
Thierry Rendall Correia Venezia Ativo 142 / 137 40% 2 20.04.2027 -
George Byers Port Vale Ativo 108 / 103 40% 1 17.04.2027 -
Adam Phillips Northampton Town Ativo 98 / 121 40% 1 16.04.2027 -
Matheus Davó Maccabi Netanya Ativo 125 / 118 40% 1 16.04.2027 -
Charles Vernam Grimsby Town Ativo 120 / 121 40% 2 13.04.2027 -
Simone Rabbi Ravenna Ativo 115 / 94 40% 1 13.04.2027 -
Atsuki Ito Bolton Wanderers Ativo 125 / 138 40% 1 07.04.2027 -
Stanislav Biblyk Chaika Ativo 99 / 90 40% 1 02.01.2027 -
Stanislav Magkeev Fakel Ativo 120 / 113 40% 1 30.12.2026 Mais informações
Adrián Guerrero Debrecen Ativo 120 / 121 40% 1 28.12.2026 -
Karem Jaber Maccabi Netanya Ativo 121 / 108 40% 2 27.12.2026 -
Stefan Lončar Akron Ativo 100 / 127 40% 1 27.12.2026 -
Ítalo Ural Ativo 116 / 107 40% 1 25.12.2026 -
Wesley Tarxien Rainbows Ativo 103 / 112 40% 1 25.12.2026 -
Marcus Coco Hapoel Tel Aviv Ativo 127 / 124 40% 4 24.12.2026 -
Arne Maier Ujpest Ativo 120 / 131 40% 1 24.12.2026 -
Saná Gomes Bnei Sakhnin Ativo 104 / 93 40% 2 20.12.2026 -
Artem Sokol Rodina Ativo 113 / 105 40% 1 19.12.2026 -
Libor Holík Spartak Trnava Ativo 107 / 128 40% 2 18.12.2026 -
Laros Duarte Puskas Akademia Ativo 107 / 123 40% 1 18.12.2026 -
Mohammed Hindi Maccabi Petach Tikva Ativo 111 / 96 40% 1 17.12.2026 -
Eneko Astigarraga Real Sociedad Ativo 82 / 106 40% 1 17.12.2026 -
Nikita Kakkoev Nizhniy Novgorod Ativo 129 / 103 40% 1 15.12.2026 -
Vyacheslav Yakimov Fakel Ativo 102 / 107 40% 1 14.12.2026 -
Serginho Levski Ativo 108 / 134 40% 3 12.12.2026 -
Eldar Ćivić Baltika Ativo 114 / 108 40% 1 12.12.2026 -
Thomas Carrique Andorra Ativo 104 / 122 40% 1 10.12.2026 -
Li On Mizrahi Maccabi Netanya Ativo 109 / 108 40% 1 10.12.2026 -
Ivan Kričak Hapoel Haifa Ativo 124 / 112 40% 2 09.12.2026 Mais informações
Yoan Stoyanov Hapoel Beer Sheva Ativo 128 / 121 40% 1 09.12.2026 Mais informações
Nana Antwi Beitar Jerusalem Ativo 113 / 118 40% 1 02.12.2026 -
António Eirô Lokomotiv Sofia Ativo 97 / 114 40% 1 01.12.2026 -
Dominik Kostka MFK Ruzomberok Ativo 101 / 118 40% 1 30.11.2026 -
Samuel Hubocan FK Senica Ativo 116 / 104 40% 1 29.11.2026 -
George Broadbent Doncaster Rovers Ativo 87 / 82 40% 1 27.11.2026 -
Nathan Gassama Baltika Ativo 121 / 107 40% 1 27.11.2026 -
Luka Vešner Tičić NK Celje Ativo 129 / 113 40% 1 25.11.2026 -
Pedro Amador Hapoel Beer Sheva Ativo 122 / 126 40% 1 24.11.2026 -
Jean-Philippe Gbamin CSKA Sofia Ativo 143 / 106 40% 1 23.11.2026 -
Robbie McKenzie Gillingham Ativo 112 / 104 40% 1 23.11.2026 -
Shai Elias Hapoel Haifa Ativo 108 / 120 40% 2 22.11.2026 -
Sandi Zajc NK Domzale Ativo 104 / 101 40% 1 22.11.2026 -
Denver Hume Fleetwood Town Ativo 103 / 119 40% 1 20.11.2026 -
Matthew Guillaumier Hamrun Spartans Ativo 91 / 86 40% 1 20.11.2026 -
Ipalibo Jack Hamrun Spartans Ativo 104 / 102 40% 1 19.11.2026 -
João Victor CSKA Moscow Ativo 134 / 140 40% 1 18.11.2026 -
Andrian Kraev Hapoel Tel Aviv Ativo 134 / 115 40% 2 17.11.2026 -
Gustavo Sliema Wanderers Ativo 105 / 104 40% 1 17.11.2026 -
Joe Rothwell Sheffield United Ativo 132 / 109 40% 1 16.11.2026 -
Fernand Mayembo Hapoel Tel Aviv Ativo 104 / 121 40% 1 15.11.2026 -
Maron Ghantous Bnei Sakhnin Ativo 97 / 115 40% 1 14.11.2026 -
Wylan Cyprien Maccabi Netanya Ativo 122 / 103 40% 1 13.11.2026 -
Álex Centelles Levski Ativo 128 / 127 40% 1 12.11.2026 -
Kevin Pina Krasnodar Ativo 119 / 124 40% 1 09.11.2026 -
Yves Bissouma Tottenham Ativo 153 / 154 40% 1 08.11.2026 -
Modestas Vorobjovas Bnei Sakhnin Ativo 105 / 110 40% 1 07.11.2026 -
Jaïro Riedewald Sheffield United Ativo 109 / 138 40% 1 25.08.2026 -
Johnly Yfeko Exeter City Ativo 118 / 117 40% 1 17.08.2026 -
Mauricio Cardillo San Lorenzo Ativo 113 / 112 40% 1 10.08.2026 -
Jordan Amissah Burton Albion Ativo 94 / 78 40% 1 01.08.2026 -